timestamp,wind_dir_avg,wind_spd_max_dir,wind_spd_avg,wind_spd_gust,battery_voltage,lat,long
2018-06-19 00:00:00+00:00,226.0,221.0,10.43,13.02,,47.59359,-54.27349
2018-06-19 00:10:00+00:00,222.0,221.0,10.93,12.58,,47.59359,-54.27349
2018-06-19 00:20:00+00:00,225.0,225.0,10.82,12.22,,47.59359,-54.27349
2018-06-19 00:30:00+00:00,223.0,225.0,11.93,13.59,,47.59359,-54.27349
2018-06-19 00:40:00+00:00,227.0,223.0,10.22,12.18,,47.59359,-54.27349
2018-06-19 00:50:00+00:00,225.0,225.0,10.74,12.07,,47.59359,-54.27349
2018-06-19 01:00:00+00:00,220.0,218.0,9.62,11.54,,47.59359,-54.27349
2018-06-19 01:10:00+00:00,221.0,219.0,11.37,12.76,,47.59359,-54.27349
2018-06-19 01:20:00+00:00,220.0,224.0,11.24,12.98,,47.59359,-54.27349
2018-06-19 01:30:00+00:00,222.0,225.0,11.38,14.09,,47.59359,-54.27349
2018-06-19 01:40:00+00:00,222.0,223.0,12.76,14.29,,47.59359,-54.27349
2018-06-19 01:50:00+00:00,226.0,224.0,13.25,17.01,,47.59359,-54.27349
2018-06-19 02:00:00+00:00,223.0,221.0,13.87,15.65,,47.59359,-54.27349
2018-06-19 02:10:00+00:00,224.0,220.0,12.81,13.9,,47.59359,-54.27349
2018-06-19 02:20:00+00:00,226.0,226.0,12.76,14.33,,47.59359,-54.27349
2018-06-19 02:30:00+00:00,221.0,224.0,11.72,13.16,,47.59359,-54.27349
2018-06-19 02:40:00+00:00,222.0,215.0,11.53,12.89,,47.59359,-54.27349
2018-06-19 02:50:00+00:00,228.0,229.0,10.43,11.64,,47.59359,-54.27349
2018-06-19 03:00:00+00:00,232.0,231.0,8.9,9.77,,47.59359,-54.27349
2018-06-19 03:10:00+00:00,235.0,232.0,6.45,7.43,,47.59359,-54.27349
2018-06-19 03:20:00+00:00,214.0,212.0,10.01,11.32,,47.59359,-54.27349
2018-06-19 03:30:00+00:00,217.0,222.0,9.66,10.83,,47.59359,-54.27349
2018-06-19 03:40:00+00:00,216.0,220.0,9.65,11.21,,47.59359,-54.27349
2018-06-19 03:50:00+00:00,210.0,213.0,9.68,11.36,,47.59359,-54.27349
2018-06-19 04:00:00+00:00,212.0,215.0,11.75,13.21,,47.59359,-54.27349
2018-06-19 04:10:00+00:00,209.0,208.0,11.53,14.4,,47.59359,-54.27349
2018-06-19 04:20:00+00:00,203.0,204.0,10.5,11.76,,47.59359,-54.27349
2018-06-19 04:30:00+00:00,197.0,195.0,10.53,12.35,,47.59359,-54.27349
2018-06-19 04:40:00+00:00,206.0,211.0,11.76,13.17,,47.59359,-54.27349
2018-06-19 04:50:00+00:00,206.0,208.0,14.22,16.13,,47.59359,-54.27349
2018-06-19 05:00:00+00:00,209.0,211.0,12.95,14.52,,47.59359,-54.27349
2018-06-19 05:10:00+00:00,212.0,216.0,12.85,14.84,,47.59359,-54.27349
2018-06-19 05:20:00+00:00,209.0,211.0,14.63,16.49,,47.59359,-54.27349
2018-06-19 05:30:00+00:00,210.0,211.0,13.74,17.52,,47.59359,-54.27349
2018-06-19 05:40:00+00:00,209.0,211.0,16.18,19.56,,47.59359,-54.27349
2018-06-19 05:50:00+00:00,209.0,203.0,14.58,17.05,,47.59359,-54.27349
2018-06-19 06:00:00+00:00,212.0,212.0,17.98,20.28,,47.59359,-54.27349
2018-06-19 06:10:00+00:00,212.0,213.0,17.4,19.64,,47.59359,-54.27349
2018-06-19 06:20:00+00:00,214.0,213.0,15.25,17.68,,47.59359,-54.27349
2018-06-19 06:30:00+00:00,212.0,211.0,15.86,18.74,,47.59359,-54.27349
2018-06-19 06:40:00+00:00,215.0,214.0,15.1,17.04,,47.59359,-54.27349
2018-06-19 06:50:00+00:00,219.0,220.0,12.38,14.08,,47.59359,-54.27349
2018-06-19 07:00:00+00:00,225.0,227.0,12.67,13.91,,47.59359,-54.27349
2018-06-19 07:10:00+00:00,219.0,220.0,14.14,16.22,,47.59359,-54.27349
2018-06-19 07:20:00+00:00,211.0,214.0,15.23,17.25,,47.59359,-54.27349
2018-06-19 07:30:00+00:00,206.0,200.0,17.31,23.49,,47.59359,-54.27349
2018-06-19 07:40:00+00:00,210.0,211.0,17.48,22.65,,47.59359,-54.27349
2018-06-19 07:50:00+00:00,214.0,212.0,17.33,19.09,,47.59359,-54.27349
2018-06-19 08:00:00+00:00,220.0,227.0,14.25,15.83,,47.59359,-54.27349
2018-06-19 08:10:00+00:00,216.0,220.0,17.99,22.07,,47.59359,-54.27349
2018-06-19 08:20:00+00:00,212.0,213.0,18.42,20.93,,47.59359,-54.27349
2018-06-19 08:30:00+00:00,222.0,219.0,18.96,22.86,,47.59359,-54.27349
2018-06-19 08:40:00+00:00,221.0,221.0,15.27,17.71,,47.59359,-54.27349
2018-06-19 08:50:00+00:00,227.0,229.0,18.66,22.63,,47.59359,-54.27349
2018-06-19 09:00:00+00:00,229.0,232.0,19.01,22.34,,47.59359,-54.27349
2018-06-19 09:10:00+00:00,226.0,230.0,18.89,21.89,,47.59359,-54.27349
2018-06-19 09:20:00+00:00,234.0,230.0,15.94,19.6,,47.59359,-54.27349
2018-06-19 09:30:00+00:00,233.0,232.0,14.34,16.53,,47.59359,-54.27349
2018-06-19 09:40:00+00:00,228.0,231.0,16.89,20.29,,47.59359,-54.27349
2018-06-19 09:50:00+00:00,232.0,231.0,13.18,15.38,,47.59359,-54.27349
2018-06-19 10:00:00+00:00,230.0,229.0,15.72,18.41,,47.59359,-54.27349
2018-06-19 10:10:00+00:00,229.0,224.0,12.99,15.64,,47.59359,-54.27349
2018-06-19 10:20:00+00:00,233.0,235.0,12.88,15.4,,47.59359,-54.27349
2018-06-19 10:30:00+00:00,231.0,220.0,12.77,16.45,,47.59359,-54.27349
2018-06-19 10:40:00+00:00,240.0,233.0,14.59,17.27,,47.59359,-54.27349
2018-06-19 10:50:00+00:00,233.0,235.0,13.0,14.7,,47.59359,-54.27349
2018-06-19 11:00:00+00:00,230.0,223.0,12.35,14.85,,47.59359,-54.27349
2018-06-19 11:10:00+00:00,234.0,238.0,11.96,13.4,,47.59359,-54.27349
2018-06-19 11:20:00+00:00,230.0,228.0,11.93,14.04,,47.59359,-54.27349
2018-06-19 11:30:00+00:00,229.0,231.0,11.95,15.14,,47.59359,-54.27349
2018-06-19 11:40:00+00:00,230.0,242.0,11.58,13.19,,47.59359,-54.27349
2018-06-19 11:50:00+00:00,232.0,235.0,11.55,12.8,,47.59359,-54.27349
2018-06-19 12:00:00+00:00,231.0,233.0,11.63,13.41,,47.59359,-54.27349
2018-06-19 12:10:00+00:00,226.0,227.0,12.85,15.3,,47.59359,-54.27349
2018-06-19 12:20:00+00:00,229.0,227.0,11.95,13.55,,47.59359,-54.27349
2018-06-19 12:30:00+00:00,229.0,234.0,13.33,15.72,,47.59359,-54.27349
2018-06-19 12:40:00+00:00,231.0,237.0,11.39,15.97,,47.59359,-54.27349
2018-06-19 12:50:00+00:00,231.0,232.0,11.13,13.09,,47.59359,-54.27349
2018-06-19 13:00:00+00:00,228.0,232.0,14.98,17.76,,47.59359,-54.27349
2018-06-19 13:10:00+00:00,223.0,222.0,12.7,15.07,,47.59359,-54.27349
2018-06-19 13:20:00+00:00,220.0,218.0,12.3,13.39,,47.59359,-54.27349
2018-06-19 13:30:00+00:00,224.0,228.0,14.88,17.38,,47.59359,-54.27349
2018-06-19 13:40:00+00:00,223.0,224.0,14.97,18.08,,47.59359,-54.27349
2018-06-19 13:50:00+00:00,223.0,224.0,15.36,18.08,,47.59359,-54.27349
2018-06-19 14:00:00+00:00,225.0,223.0,15.36,19.67,,47.59359,-54.27349
2018-06-19 14:10:00+00:00,224.0,220.0,14.86,18.66,,47.59359,-54.27349
2018-06-19 14:20:00+00:00,225.0,224.0,14.46,17.25,,47.59359,-54.27349
2018-06-19 14:30:00+00:00,225.0,230.0,15.21,18.51,,47.59359,-54.27349
2018-06-19 14:40:00+00:00,228.0,226.0,14.13,16.28,,47.59359,-54.27349
2018-06-19 14:50:00+00:00,228.0,232.0,13.29,15.75,,47.59359,-54.27349
2018-06-19 15:00:00+00:00,226.0,226.0,13.59,15.29,,47.59359,-54.27349
2018-06-19 15:10:00+00:00,225.0,229.0,13.66,17.09,,47.59359,-54.27349
2018-06-19 15:20:00+00:00,224.0,225.0,12.89,14.85,,47.59359,-54.27349
2018-06-19 15:30:00+00:00,226.0,222.0,12.71,14.31,,47.59359,-54.27349
2018-06-19 15:40:00+00:00,226.0,226.0,12.94,14.8,,47.59359,-54.27349
2018-06-19 15:50:00+00:00,223.0,224.0,13.3,16.26,,47.59359,-54.27349
2018-06-19 16:00:00+00:00,218.0,217.0,14.39,16.69,,47.59359,-54.27349
2018-06-19 16:10:00+00:00,225.0,220.0,15.04,17.86,,47.59359,-54.27349
2018-06-19 16:20:00+00:00,222.0,220.0,14.64,16.53,,47.59359,-54.27349
2018-06-19 16:30:00+00:00,221.0,218.0,11.92,13.34,,47.59359,-54.27349
2018-06-19 16:40:00+00:00,223.0,224.0,14.05,17.41,,47.59359,-54.27349
2018-06-19 16:50:00+00:00,222.0,221.0,13.1,14.9,,47.59359,-54.27349
2018-06-19 17:00:00+00:00,225.0,228.0,14.51,17.25,,47.59359,-54.27349
2018-06-19 17:10:00+00:00,224.0,227.0,14.26,15.85,,47.59359,-54.27349
2018-06-19 17:20:00+00:00,224.0,230.0,12.38,14.52,,47.59359,-54.27349
2018-06-19 17:30:00+00:00,227.0,227.0,14.43,16.23,,47.59359,-54.27349
2018-06-19 17:40:00+00:00,232.0,227.0,10.65,12.63,,47.59359,-54.27349
2018-06-19 17:50:00+00:00,225.0,222.0,12.8,14.49,,47.59359,-54.27349
2018-06-19 18:00:00+00:00,228.0,234.0,12.78,15.24,,47.59359,-54.27349
2018-06-19 18:10:00+00:00,228.0,229.0,12.95,14.89,,47.59359,-54.27349
2018-06-19 18:20:00+00:00,227.0,230.0,14.67,17.58,,47.59359,-54.27349
2018-06-19 18:30:00+00:00,226.0,226.0,14.5,17.04,,47.59359,-54.27349
2018-06-19 18:40:00+00:00,224.0,226.0,13.76,15.95,,47.59359,-54.27349
2018-06-19 18:50:00+00:00,225.0,226.0,12.65,14.85,,47.59359,-54.27349
2018-06-19 19:00:00+00:00,224.0,225.0,12.17,13.95,,47.59359,-54.27349
2018-06-19 19:10:00+00:00,222.0,219.0,11.14,12.89,,47.59359,-54.27349
2018-06-19 19:20:00+00:00,220.0,218.0,10.83,12.17,,47.59359,-54.27349
2018-06-19 19:30:00+00:00,224.0,231.0,11.1,12.53,,47.59359,-54.27349
2018-06-19 19:40:00+00:00,222.0,225.0,9.73,11.06,,47.59359,-54.27349
2018-06-19 19:50:00+00:00,220.0,221.0,9.58,10.69,,47.59359,-54.27349
2018-06-19 20:00:00+00:00,222.0,221.0,8.78,10.14,,47.59359,-54.27349
2018-06-19 20:10:00+00:00,219.0,223.0,8.26,9.73,,47.59359,-54.27349
2018-06-19 20:20:00+00:00,219.0,221.0,7.86,9.66,,47.59359,-54.27349
2018-06-19 20:30:00+00:00,221.0,223.0,8.01,8.55,,47.59359,-54.27349
2018-06-19 20:40:00+00:00,219.0,220.0,7.34,8.56,,47.59359,-54.27349
2018-06-19 20:50:00+00:00,222.0,223.0,9.07,10.52,,47.59359,-54.27349
2018-06-19 21:00:00+00:00,219.0,223.0,8.97,9.97,,47.59359,-54.27349
2018-06-19 21:10:00+00:00,221.0,224.0,8.36,9.11,,47.59359,-54.27349
2018-06-19 21:20:00+00:00,226.0,234.0,9.09,11.33,,47.59359,-54.27349
2018-06-19 21:30:00+00:00,227.0,227.0,10.33,11.62,,47.59359,-54.27349
2018-06-19 21:40:00+00:00,223.0,225.0,10.21,11.36,,47.59359,-54.27349
2018-06-19 21:50:00+00:00,226.0,226.0,9.56,10.61,,47.59359,-54.27349
2018-06-19 22:00:00+00:00,221.0,219.0,8.37,9.24,,47.59359,-54.27349
2018-06-19 22:10:00+00:00,220.0,218.0,8.24,9.01,,47.59359,-54.27349
2018-06-19 22:20:00+00:00,225.0,221.0,8.02,8.65,,47.59359,-54.27349
2018-06-19 22:30:00+00:00,224.0,223.0,7.43,8.11,,47.59359,-54.27349
2018-06-19 22:40:00+00:00,222.0,224.0,7.55,8.17,,47.59359,-54.27349
2018-06-19 22:50:00+00:00,220.0,219.0,7.32,8.23,,47.59359,-54.27349
2018-06-19 23:00:00+00:00,219.0,218.0,8.22,8.99,,47.59359,-54.27349
2018-06-19 23:10:00+00:00,219.0,221.0,8.41,9.07,,47.59359,-54.27349
2018-06-19 23:20:00+00:00,218.0,217.0,6.99,7.67,,47.59359,-54.27349
2018-06-19 23:30:00+00:00,216.0,218.0,7.01,7.79,,47.59359,-54.27349
2018-06-19 23:40:00+00:00,216.0,215.0,6.72,7.37,,47.59359,-54.27349
2018-06-19 23:50:00+00:00,219.0,219.0,6.53,7.62,,47.59359,-54.27349
